[[{"header":{"parameterUnit":"m.s-1","parameterCategory":2,"la1":30.2991,"la2":30.254,"lo1":-89.0895,"lo2":-89.0444,"dy":0.0017,"dx":0.0017,"nx":28,"ny":28,"refTime":"2023-10-13T03:00:00:Z","depth":"0","parameterNumber":2,"parameterNumberName":"U-component_of_CURRENTS"},"data":[0,0,0,0,0,0,0,0,0,0,0,0,0,0,0,0,0,0,0,0,0,0,0,0,0,0,0,0,0,0,0,0,0,0,0,0,0,0,0,0,0,0,0,0,0,0,0,0,0,0,0,0,0,0,0,0,0,0,0.2043,0.2044,0,0.2108,0.2108,0.2109,0.2125,0.2124,0.2124,0.2123,0.2246,0.2249,0.2253,0,0,0,0,0,0,0,0,0,0,0,0,0,0.2083,0.2081,0.2043,0.2044,0.2045,0.2107,0.2108,0.2109,0.2125,0.2124,0.2124,0.2123,0.2245,0.2249,0.2253,0,0,0,0,0,0,0,0,0,0,0,0,0,0.2098,0.2081,0.2043,0.206,0.2062,0.2107,0.2108,0.2109,0.2125,0.2124,0.2123,0.2123,0.2243,0.2249,0.2254,0.2302,0,0,0.2271,0.2273,0,0,0,0,0,0,0,0,0.2097,0.2097,0.2057,0.2059,0.2061,0.2107,0.2167,0.2177,0.2125,0.2101,0.2123,0.2123,0.2205,0.2214,0.2227,0.2307,0.2313,0.2271,0.2275,0.2277,0.2279,0,0,0,0,0,0,0,0.2096,0.2095,0.2069,0.2058,0.206,0.2115,0.2115,0.217,0.2158,0.2103,0.2105,0.2111,0.2207,0.2222,0.223,0.2314,0.2271,0.2276,0.228,0.2282,0.2508,0.2511,0,0,0,0,0,0,0.208,0.2093,0.2067,0.2071,0.2078,0.2114,0.2115,0.2093,0.2156,0.2164,0.2112,0.2112,0.2212,0.2224,0.2235,0.232,0.2277,0.2282,0.2285,0.2506,0.2509,0.2512,0,0,0,0,0,0,0.208,0.2076,0.2064,0.2085,0.2088,0.2113,0.209,0.2095,0.2115,0.2162,0.2171,0.2128,0.2212,0.2227,0.2301,0.2323,0.2285,0.229,0.2503,0.2507,0.251,0.2474,0,0,0,0,0,0,0.208,0.2075,0.2042,0.2083,0.2086,0.2087,0.2091,0.2097,0.212,0.2121,0.2179,0.2189,0.2213,0.2293,0.2307,0.233,0.2294,0.2499,0.2504,0.2509,0.2472,0.2476,0.248,0,0,0,0,0,0.2081,0.2041,0.2039,0.2036,0.2042,0.2087,0.2094,0.2112,0.2121,0.2129,0.2183,0.2187,0.2335,0.23,0.2315,0.234,0.2497,0.2503,0.2509,0.247,0.2475,0.248,0,0,0,0,0,0,0.2043,0.204,0.2039,0.1998,0.2039,0.209,0.2088,0.2119,0.2167,0.217,0.2218,0.2233,0.2315,0.2343,0.2302,0.2428,0.2419,0.2428,0.2384,0.239,0.2394,0.2372,0.2299,0,0,0,0,0,0.2018,0.1984,0.2017,0.1989,0.2002,0.2051,0.2068,0.2094,0.2146,0.2165,0.2214,0.2278,0.2354,0.238,0.2448,0.2506,0.2541,0.2539,0.2543,0.2546,0.2544,0.2624,0.2634,0.2532,0.2532,0.2532,0,0,0.1997,0.1991,0.1972,0.1979,0.2005,0.204,0.2059,0.209,0.2133,0.2175,0.2239,0.2301,0.238,0.2452,0.2489,0.2471,0.2597,0.2554,0.2555,0.2552,0.2632,0.2641,0.2649,0.2536,0.2535,0.2535,0,0,0.1975,0.1935,0.192,0.1946,0.1985,0.2023,0.2036,0.21,0.2132,0.2209,0.2262,0.2331,0.2433,0.2486,0.253,0.2603,0.2629,0.2634,0.2616,0.2694,0.2702,0.2709,0.2763,0.2775,0.2618,0.2618,0.2618,0,0.1955,0.1932,0.1931,0.1944,0.1968,0.2019,0.2051,0.2096,0.2183,0.2223,0.2227,0.2401,0.245,0.2553,0.2571,0.2607,0.2651,0.2578,0.2694,0.2703,0.2711,0.2764,0.2778,0.2617,0.2617,0.2618,0.2618,0,0.1948,0.1929,0.1928,0.1952,0.1984,0.2012,0.2082,0.2129,0.2179,0.2234,0.2346,0.242,0.2519,0.2548,0.2576,0.2669,0.2683,0.2697,0.2665,0.2718,0.2772,0.2787,0.2616,0.2616,0.2616,0.2617,0,0,0.1909,0.1918,0.1919,0.1922,0.1987,0.2012,0.209,0.2174,0.2222,0.2303,0.2378,0.2493,0.2528,0.2582,0.2633,0.2678,0.276,0.2698,0.2703,0.2721,0.2924,0.291,0.2925,0.2794,0.2797,0.2799,0.2936,0,0.1911,0.1909,0.1939,0.1963,0.1966,0.204,0.2104,0.2186,0.2263,0.2342,0.243,0.2517,0.2545,0.2586,0.2647,0.2745,0.2801,0.2721,0.2897,0.2902,0.2858,0.2942,0.282,0.2931,0.2951,0.2953,0.2955,0,0.19,0.1893,0.1904,0.194,0.1955,0.1992,0.2089,0.2158,0.2286,0.2348,0.245,0.2527,0.2633,0.2634,0.2818,0.2768,0.2847,0.2902,0.291,0.2917,0.2917,0.2888,0.2958,0.287,0.2979,0.2977,0.2975,0,0.1848,0.1869,0.1867,0.1877,0.1938,0.1973,0.2027,0.2149,0.2218,0.2345,0.2407,0.255,0.2634,0.2751,0.2891,0.2861,0.308,0.3056,0.3119,0.3118,0.306,0.3049,0.3037,0.3185,0.3185,0.3185,0.3184,0,0.1827,0.1816,0.1825,0.1822,0.1842,0.1904,0.1969,0.2054,0.2176,0.2263,0.2392,0.2494,0.2669,0.2823,0.2917,0.3081,0.312,0.3136,0.3165,0.3045,0.3033,0.2989,0.2924,0.319,0.3189,0.3188,0.3187,0,0.1773,0.1779,0.1772,0.1808,0.1813,0.1829,0.1925,0.1974,0.2095,0.2217,0.2259,0.2479,0.2669,0.2845,0.3053,0.3125,0.3172,0.3311,0.3149,0.3155,0.3082,0.302,0.2942,0.2875,0.3378,0.3379,0.3379,0,0.1745,0.1724,0.1743,0.1735,0.1749,0.1772,0.18,0.1922,0.1986,0.2212,0.2265,0.2491,0.265,0.2955,0.3126,0.331,0.3198,0.3286,0.3198,0.3077,0.3031,0.2881,0.2818,0.3109,0.3107,0.3106,0.3104,0,0.1689,0.1696,0.1689,0.1679,0.1686,0.171,0.1755,0.1794,0.1955,0.2072,0.2249,0.2388,0.2705,0.2866,0.3123,0.3214,0.3088,0.3261,0.3187,0.2863,0.2649,0.2598,0.3005,0.3092,0.3093,0.3094,0.3095,0.3095,0.1643,0.1636,0.1627,0.1613,0.1619,0.1635,0.1652,0.1722,0.1824,0.1995,0.216,0.2344,0.2591,0.2935,0.3007,0.3053,0.3037,0.2995,0.2947,0.282,0.2688,0.3059,0.3145,0.3146,0.3148,0.3149,0.315,0,0.1584,0.1574,0.1557,0.1552,0.1534,0.1568,0.1611,0.1634,0.1721,0.1893,0.2045,0.2282,0.2448,0.2624,0.278,0.2743,0.2635,0.2694,0.2442,0.2414,0.2805,0.2727,0.2662,0.2662,0.2662,0.2662,0.2662,0.2662,0.1549,0.1519,0.1511,0.1454,0.1447,0.1445,0.1461,0.1521,0.1618,0.1774,0.1912,0.2054,0.2289,0.2433,0.2438,0.2412,0.2229,0.2164,0.218,0.2436,0.2459,0.248,0.2393,0.2259,0.2258,0.1695,0.1691,0.1687]},{"header":{"parameterUnit":"m.s-1","parameterCategory":2,"la1":30.2991,"la2":30.254,"lo1":-89.0895,"lo2":-89.0444,"dy":0.0017,"dx":0.0017,"nx":28,"ny":28,"refTime":"2023-10-13T03:00:00:Z","depth":"0","parameterNumber":3,"parameterNumberName":"V-component_of_CURRENTS"},"data":[0,0,0,0,0,0,0,0,0,0,0,0,0,0,0,0,0,0,0,0,0,0,0,0,0,0,0,0,0,0,0,0,0,0,0,0,0,0,0,0,0,0,0,0,0,0,0,0,0,0,0,0,0,0,0,0,0,0,-0.0539,-0.0539,0,-0.0499,-0.0498,-0.0498,-0.049,-0.0491,-0.0491,-0.0492,-0.0609,-0.0612,-0.0614,0,0,0,0,0,0,0,0,0,0,0,0,0,-0.0652,-0.0649,-0.0539,-0.0539,-0.0539,-0.0499,-0.0498,-0.0497,-0.049,-0.0491,-0.0491,-0.0492,-0.0609,-0.0612,-0.0615,0,0,0,0,0,0,0,0,0,0,0,0,0,-0.0603,-0.0648,-0.0539,-0.0533,-0.0532,-0.0499,-0.0498,-0.0497,-0.049,-0.0491,-0.0492,-0.0493,-0.0608,-0.0611,-0.0615,-0.062,0,0,-0.0627,-0.0628,0,0,0,0,0,0,0,0,-0.0606,-0.0598,-0.0534,-0.0533,-0.0532,-0.0503,-0.0581,-0.0547,-0.049,-0.0502,-0.0492,-0.0493,-0.059,-0.0595,-0.0579,-0.0626,-0.0631,-0.0627,-0.0629,-0.0631,-0.0632,0,0,0,0,0,0,0,-0.0609,-0.0601,-0.052,-0.0534,-0.0533,-0.0547,-0.054,-0.0574,-0.0542,-0.0501,-0.0501,-0.0502,-0.059,-0.0575,-0.0582,-0.0632,-0.0627,-0.063,-0.0633,-0.0634,-0.0729,-0.073,0,0,0,0,0,0,-0.0617,-0.0603,-0.0521,-0.0519,-0.0576,-0.0544,-0.0536,-0.0509,-0.0538,-0.0543,-0.0501,-0.0502,-0.0568,-0.0578,-0.0586,-0.0609,-0.0631,-0.0635,-0.0637,-0.0729,-0.0729,-0.073,0,0,0,0,0,0,-0.0619,-0.0608,-0.0523,-0.0565,-0.0556,-0.0541,-0.051,-0.0508,-0.0493,-0.0537,-0.0544,-0.049,-0.0569,-0.0581,-0.0624,-0.0614,-0.0636,-0.064,-0.0729,-0.0729,-0.073,-0.0646,0,0,0,0,0,0,-0.0621,-0.0609,-0.0567,-0.0564,-0.0553,-0.0504,-0.051,-0.0506,-0.0493,-0.0494,-0.053,-0.0541,-0.0571,-0.0618,-0.0627,-0.0619,-0.0643,-0.0729,-0.0729,-0.0729,-0.0649,-0.0644,-0.0639,0,0,0,0,0,-0.0625,-0.0572,-0.0565,-0.0555,-0.0504,-0.0504,-0.0499,-0.0492,-0.0492,-0.0481,-0.0514,-0.054,-0.0628,-0.0621,-0.0632,-0.0625,-0.0728,-0.0729,-0.0729,-0.0651,-0.0645,-0.064,0,0,0,0,0,0,-0.0593,-0.0566,-0.0559,-0.0496,-0.0502,-0.0504,-0.0484,-0.0487,-0.0496,-0.0503,-0.0543,-0.0556,-0.0589,-0.0624,-0.0615,-0.0657,-0.0683,-0.0685,-0.0619,-0.0614,-0.0609,-0.059,-0.0646,0,0,0,0,0,-0.0568,-0.0523,-0.0523,-0.0475,-0.0478,-0.048,-0.0471,-0.0478,-0.0496,-0.0498,-0.0531,-0.057,-0.0597,-0.0619,-0.0655,-0.0678,-0.0691,-0.0683,-0.0678,-0.0674,-0.0668,-0.0671,-0.0664,-0.0731,-0.0731,-0.0731,0,0,-0.0547,-0.0522,-0.0498,-0.0466,-0.0467,-0.0465,-0.0476,-0.0473,-0.0471,-0.0515,-0.0526,-0.0558,-0.0601,-0.0623,-0.0641,-0.0652,-0.0662,-0.0675,-0.067,-0.0667,-0.067,-0.0663,-0.0657,-0.0732,-0.0732,-0.0732,0,0,-0.0516,-0.0464,-0.0438,-0.0431,-0.0432,-0.0442,-0.0444,-0.0459,-0.0462,-0.0486,-0.0509,-0.053,-0.059,-0.0599,-0.0615,-0.0609,-0.0637,-0.0632,-0.059,-0.0592,-0.0585,-0.058,-0.0578,-0.0573,-0.0628,-0.0628,-0.0627,0,-0.05,-0.044,-0.0435,-0.0415,-0.04,-0.0435,-0.0423,-0.0433,-0.0461,-0.0461,-0.0492,-0.0534,-0.0572,-0.0567,-0.0567,-0.0595,-0.0605,-0.0601,-0.0582,-0.0577,-0.0573,-0.0573,-0.0568,-0.0624,-0.0624,-0.0624,-0.0625,0,-0.0467,-0.0407,-0.0395,-0.0376,-0.0371,-0.0358,-0.0387,-0.0393,-0.0416,-0.0429,-0.0443,-0.0484,-0.0506,-0.0518,-0.0545,-0.0528,-0.0547,-0.0572,-0.0586,-0.056,-0.0563,-0.0559,-0.0618,-0.0619,-0.0621,-0.0622,0,0,-0.0461,-0.0386,-0.0377,-0.0339,-0.0337,-0.0333,-0.0339,-0.0343,-0.0334,-0.0376,-0.0352,-0.0399,-0.042,-0.0439,-0.0464,-0.0466,-0.0444,-0.0506,-0.0508,-0.0486,-0.0446,-0.0427,-0.0422,-0.0465,-0.0464,-0.0464,-0.0454,0,-0.0437,-0.0368,-0.0347,-0.0292,-0.0258,-0.0269,-0.0264,-0.0276,-0.0303,-0.0298,-0.0326,-0.0333,-0.039,-0.0391,-0.0403,-0.043,-0.0434,-0.0444,-0.049,-0.0492,-0.0462,-0.0417,-0.0359,-0.0343,-0.0451,-0.0451,-0.0451,0,-0.0416,-0.0355,-0.0293,-0.021,-0.0202,-0.0188,-0.0168,-0.0169,-0.0181,-0.0199,-0.0214,-0.0249,-0.025,-0.0307,-0.0341,-0.0347,-0.0394,-0.0421,-0.0422,-0.0431,-0.0466,-0.0391,-0.0334,-0.0412,-0.0446,-0.0447,-0.0447,0,-0.0409,-0.0313,-0.025,-0.0222,-0.0162,-0.0137,-0.0121,-0.0133,-0.0115,-0.0129,-0.0114,-0.0153,-0.0144,-0.0212,-0.0285,-0.0315,-0.0315,-0.0366,-0.0392,-0.0391,-0.0364,-0.0361,-0.037,-0.0392,-0.0392,-0.0392,-0.0392,0,-0.0376,-0.0312,-0.0228,-0.0191,-0.0107,-0.0093,-0.0037,-0.0041,-0.0023,0.0022,-0.0052,-0.0012,-0.0121,-0.0143,-0.0238,-0.0287,-0.0284,-0.0367,-0.038,-0.0334,-0.0329,-0.0416,-0.0473,-0.0392,-0.0392,-0.0392,-0.0392,0,-0.0357,-0.0313,-0.0226,-0.0139,-0.01,-0.0046,0.0041,0.0072,0.0075,0.0139,0.0144,0.0114,0.0087,-0.0021,-0.0105,-0.02,-0.0297,-0.0296,-0.0231,-0.0236,-0.0347,-0.0401,-0.0422,-0.0453,-0.0323,-0.0323,-0.0322,0,-0.0333,-0.0287,-0.0182,-0.0134,-0.0081,0.0015,0.0073,0.0113,0.0161,0.023,0.0276,0.0268,0.0286,0.0172,0.0005,-0.0138,-0.0239,-0.0194,-0.0248,-0.0324,-0.0394,-0.0436,-0.0464,-0.0179,-0.0178,-0.0176,-0.0175,0,-0.0271,-0.0251,-0.0184,-0.0086,-0.001,0.0102,0.0203,0.0267,0.0325,0.0399,0.0503,0.0531,0.0426,0.0335,0.0126,0.0006,-0.0222,-0.0171,-0.0262,-0.0282,-0.0315,-0.0359,-0.0222,-0.0163,-0.0164,-0.0165,-0.0166,-0.0166,-0.0236,-0.0184,-0.0123,-0.0019,0.0067,0.0189,0.0288,0.0403,0.0532,0.068,0.069,0.0788,0.062,0.0355,0.0179,-0.01,-0.0144,-0.0187,-0.0246,-0.0281,-0.0308,-0.0139,-0.0092,-0.0093,-0.0093,-0.0094,-0.0094,0,-0.0186,-0.0135,-0.0052,0.0059,0.0167,0.0209,0.0375,0.0495,0.0682,0.0831,0.0949,0.0968,0.0739,0.0467,0.0083,-0.0131,-0.023,-0.0248,-0.0299,-0.0328,-0.0176,-0.0168,-0.0119,-0.0119,-0.0119,-0.0119,-0.0119,-0.0118,-0.0163,-0.0092,-0.0042,0.0138,0.0224,0.0389,0.0493,0.068,0.0835,0.1096,0.1214,0.126,0.1099,0.0378,-0.0095,-0.0226,-0.0391,-0.0397,-0.051,-0.0418,-0.0417,-0.0417,-0.0422,-0.0427,-0.0427,-0.0613,-0.0615,-0.0616]}],[{"header":{"parameterUnit":"m.s-1","parameterCategory":2,"la1":30.2991,"la2":30.254,"lo1":-89.0895,"lo2":-89.0444,"dy":0.0017,"dx":0.0017,"nx":28,"ny":28,"refTime":"2023-10-13T03:00:00:Z","depth":"2","parameterNumber":2,"parameterNumberName":"U-component_of_CURRENTS"},"data":[0,0,0,0,0,0,0,0,0,0,0,0,0,0,0,0,0,0,0,0,0,0,0,0,0,0,0,0,0,0,0,0,0,0,0,0,0,0,0,0,0,0,0,0,0,0,0,0,0,0,0,0,0,0,0,0,0,0,0.1497,0.1499,0,0.1588,0.1588,0.1588,0.1574,0.1574,0.1574,0.1573,0.1644,0.1646,0.1648,0,0,0,0,0,0,0,0,0,0,0,0,0,0.1264,0.1267,0.1497,0.1499,0.1501,0.1588,0.1588,0.1588,0.1574,0.1574,0.1574,0.1573,0.1643,0.1646,0.1649,0,0,0,0,0,0,0,0,0,0,0,0,0,0.1348,0.1268,0.1496,0.1515,0.1518,0.1588,0.1588,0.1588,0.1575,0.1574,0.1574,0.1573,0.1643,0.1646,0.1649,0.1679,0,0,0.1659,0.166,0,0,0,0,0,0,0,0,0.1344,0.1355,0.151,0.1514,0.1518,0.1581,0.1532,0.1622,0.1575,0.1539,0.1573,0.1573,0.163,0.1634,0.1634,0.1683,0.1686,0.1659,0.1661,0.1663,0.1664,0,0,0,0,0,0,0,0.1338,0.1351,0.1519,0.1513,0.1518,0.1503,0.1513,0.1548,0.1576,0.1542,0.1545,0.1576,0.163,0.1631,0.1636,0.1687,0.1659,0.1662,0.1664,0.1665,0.1719,0.1718,0,0,0,0,0,0,0.1357,0.1346,0.1517,0.1524,0.1442,0.1509,0.152,0.155,0.1576,0.1583,0.1576,0.1575,0.1625,0.1632,0.1638,0.1731,0.1663,0.1666,0.1668,0.1719,0.1719,0.1718,0,0,0,0,0,0,0.1351,0.1371,0.1513,0.1447,0.1466,0.1515,0.1548,0.1553,0.1582,0.1605,0.1608,0.1606,0.1625,0.1634,0.167,0.1731,0.1667,0.167,0.172,0.1719,0.1718,0.188,0,0,0,0,0,0,0.1344,0.1368,0.1385,0.1449,0.1471,0.1569,0.1551,0.1555,0.1607,0.1606,0.1631,0.1635,0.1626,0.1665,0.1673,0.1735,0.1673,0.1721,0.1719,0.1718,0.1876,0.1885,0.1893,0,0,0,0,0,0.1335,0.1374,0.1384,0.1406,0.1496,0.1572,0.158,0.1603,0.1609,0.1625,0.163,0.1636,0.1663,0.1668,0.1678,0.1742,0.1721,0.172,0.1719,0.1872,0.1883,0.1893,0,0,0,0,0,0,0.1357,0.1379,0.1392,0.1457,0.1516,0.1574,0.1595,0.1627,0.1644,0.1641,0.165,0.1655,0.1716,0.1682,0.1688,0.1738,0.1685,0.1686,0.1798,0.1809,0.1818,0.1817,0.1676,0,0,0,0,0,0.1356,0.1336,0.1417,0.147,0.1495,0.1549,0.1582,0.1611,0.1648,0.1656,0.1674,0.1677,0.1713,0.1724,0.1738,0.1776,0.1783,0.1806,0.1815,0.1824,0.1821,0.1892,0.191,0.1714,0.1714,0.1714,0,0,0.1376,0.1396,0.1387,0.1463,0.1497,0.1532,0.1564,0.1629,0.1654,0.1663,0.1685,0.1731,0.1731,0.1776,0.1796,0.176,0.1882,0.1822,0.1831,0.1822,0.1893,0.1914,0.1931,0.1713,0.1713,0.1713,0,0,0.1397,0.1432,0.1406,0.145,0.1516,0.1544,0.1575,0.1644,0.1662,0.1706,0.1729,0.1802,0.1814,0.1851,0.1866,0.1922,0.1942,0.1922,0.1968,0.204,0.2059,0.2075,0.2127,0.2147,0.191,0.191,0.1911,0,0.1393,0.1437,0.143,0.1449,0.1499,0.1551,0.1596,0.1614,0.1686,0.1733,0.1713,0.1824,0.1847,0.1945,0.1963,0.1955,0.1986,0.195,0.2061,0.2077,0.2091,0.214,0.216,0.1918,0.1917,0.1916,0.1916,0,0.1409,0.1453,0.1468,0.1467,0.1507,0.1575,0.1615,0.1643,0.168,0.1739,0.1853,0.1892,0.196,0.1992,0.2002,0.2128,0.2117,0.2092,0.2058,0.2123,0.2167,0.2186,0.1929,0.1926,0.1924,0.1922,0,0,0.1398,0.1441,0.147,0.1467,0.1543,0.1569,0.1607,0.1692,0.1734,0.1806,0.1895,0.1998,0.2071,0.2087,0.214,0.2204,0.236,0.2198,0.2198,0.2289,0.2524,0.2365,0.2369,0.2378,0.2382,0.2384,0.2525,0,0.1425,0.1441,0.1493,0.1536,0.1541,0.1606,0.1643,0.1714,0.1773,0.1849,0.1959,0.2055,0.2088,0.2153,0.2237,0.2335,0.241,0.2323,0.2408,0.241,0.2296,0.2385,0.2135,0.2225,0.2542,0.2545,0.2547,0,0.1442,0.1452,0.1491,0.1539,0.1561,0.1593,0.1666,0.1713,0.1839,0.1897,0.2027,0.2113,0.2269,0.225,0.2458,0.241,0.2479,0.2533,0.2539,0.234,0.2283,0.2201,0.2246,0.2577,0.2574,0.2572,0.257,0,0.1399,0.1461,0.1482,0.1505,0.1561,0.1599,0.1642,0.1747,0.181,0.1938,0.2021,0.2192,0.2291,0.2409,0.2552,0.252,0.2751,0.2704,0.2625,0.2614,0.2385,0.2346,0.2835,0.2835,0.2834,0.2834,0.2834,0,0.1389,0.1425,0.1449,0.1471,0.1503,0.1554,0.1632,0.1688,0.1818,0.1928,0.2057,0.2171,0.2342,0.2499,0.2588,0.2673,0.2786,0.265,0.2646,0.2428,0.2393,0.2664,0.2642,0.2839,0.2838,0.2837,0.2836,0,0.1343,0.1371,0.1399,0.1467,0.1477,0.1495,0.1607,0.1666,0.179,0.1923,0.1981,0.2196,0.2395,0.2555,0.2751,0.2705,0.28,0.2802,0.2523,0.248,0.2602,0.2586,0.2696,0.2692,0.2688,0.2685,0.2683,0,0.1339,0.1332,0.1387,0.1385,0.1424,0.1458,0.1508,0.1631,0.1706,0.1943,0.2016,0.2251,0.2384,0.2593,0.2545,0.2618,0.2813,0.2444,0.2302,0.2606,0.2592,0.2582,0.2572,0.2087,0.208,0.2074,0.207,0,0.1334,0.1352,0.1357,0.1361,0.139,0.1429,0.1504,0.1547,0.1721,0.1839,0.2016,0.2134,0.2267,0.2212,0.2275,0.2287,0.2392,0.2316,0.2766,0.2126,0.2033,0.2018,0.2029,0.2017,0.2022,0.2026,0.2029,0.2031,0.1338,0.1327,0.1325,0.1326,0.1355,0.1396,0.1422,0.1513,0.162,0.1764,0.189,0.197,0.1928,0.1847,0.1857,0.1872,0.1993,0.1959,0.1978,0.2003,0.1873,0.1774,0.1686,0.1689,0.1692,0.1695,0.1697,0,0.1305,0.1288,0.1287,0.1282,0.1312,0.1354,0.1421,0.1443,0.1526,0.1612,0.1695,0.1462,0.1426,0.154,0.138,0.1315,0.1306,0.1387,0.1386,0.1435,0.1479,0.1325,0.0993,0.0992,0.0991,0.099,0,0,0.1268,0.1248,0.1246,0.1251,0.1257,0.1296,0.1326,0.1357,0.1388,0.1336,0.1313,0.1315,0.1367,0.1096,0.106,0.1055,0.1255,0.1021,0.1567,0.1609,0.1654,0.1769,0.1578,0,0,0,0,0]},{"header":{"parameterUnit":"m.s-1","parameterCategory":2,"la1":30.2991,"la2":30.254,"lo1":-89.0895,"lo2":-89.0444,"dy":0.0017,"dx":0.0017,"nx":28,"ny":28,"refTime":"2023-10-13T03:00:00:Z","depth":"2","parameterNumber":3,"parameterNumberName":"V-component_of_CURRENTS"},"data":[0,0,0,0,0,0,0,0,0,0,0,0,0,0,0,0,0,0,0,0,0,0,0,0,0,0,0,0,0,0,0,0,0,0,0,0,0,0,0,0,0,0,0,0,0,0,0,0,0,0,0,0,0,0,0,0,0,0,-0.0038,-0.0039,0,-0.0035,-0.0034,-0.0033,-0.003,-0.003,-0.0031,-0.0032,-0.0026,-0.0025,-0.0024,0,0,0,0,0,0,0,0,0,0,0,0,0,0.0154,0.015,-0.0038,-0.0039,-0.004,-0.0035,-0.0034,-0.0033,-0.0029,-0.003,-0.0031,-0.0032,-0.0026,-0.0025,-0.0024,0,0,0,0,0,0,0,0,0,0,0,0,0,0.0113,0.0148,-0.0038,-0.0044,-0.0045,-0.0035,-0.0034,-0.0033,-0.0029,-0.003,-0.0032,-0.0033,-0.0026,-0.0025,-0.0024,0.0008,0,0,-0.0019,-0.0019,0,0,0,0,0,0,0,0,0.0115,0.0107,-0.0042,-0.0044,-0.0045,-0.0042,0.0035,-0.0022,-0.0029,-0.0026,-0.0032,-0.0033,-0.0036,-0.0034,-0.0017,0.0009,0.0009,-0.0019,-0.0018,-0.0018,-0.0018,0,0,0,0,0,0,0,0.0118,0.0108,-0.0028,-0.0043,-0.0045,0.0019,0.0011,0.0026,-0.0017,-0.0026,-0.0028,-0.0042,-0.0035,-0.0019,-0.0018,0.0009,-0.0019,-0.0018,-0.0017,-0.0017,0.0061,0.0062,0,0,0,0,0,0,0.0089,0.0109,-0.0028,-0.0029,0.0023,0.0015,0.0007,-0.0034,-0.0017,-0.0019,-0.0041,-0.0042,-0.002,-0.0019,-0.0017,-0.0022,-0.0018,-0.0017,-0.0016,0.0059,0.0061,0.0062,0,0,0,0,0,0,0.0093,0.0076,-0.0028,0.0036,0.0026,0.001,-0.0034,-0.0034,-0.0038,-0.003,-0.003,-0.005,-0.0021,-0.0019,0.001,-0.002,-0.0016,-0.0015,0.0058,0.006,0.0062,-0.0004,0,0,0,0,0,0,0.0098,0.0077,0.0061,0.0032,0.002,-0.0033,-0.0034,-0.0033,-0.0049,-0.005,-0.0037,-0.0037,-0.0022,0.0009,0.0012,-0.0019,-0.0014,0.0056,0.0059,0.0061,-0.0003,-0.0005,-0.0006,0,0,0,0,0,0.0105,0.0069,0.006,0.0044,-0.001,-0.0034,-0.0033,-0.0038,-0.0048,-0.0046,-0.002,-0.0038,0.0025,0.0012,0.0015,-0.0016,0.0055,0.0058,0.0061,-0.0003,-0.0004,-0.0006,0,0,0,0,0,0,0.0067,0.0064,0.0054,-0.0004,-0.002,-0.0038,-0.0036,-0.0048,-0.0025,-0.0026,-0.0014,-0.001,-0.0008,0.002,0.0005,0.002,0.0034,0.0037,-0.0016,-0.0017,-0.0018,-0.0015,-0.0013,0,0,0,0,0,0.0067,0.0093,0.0046,0.0005,-0.0006,-0.002,-0.0026,-0.0039,-0.0036,-0.0029,-0.0021,0.0001,0.0013,0.0023,0.0039,0.006,0.0068,0.0045,0.0044,0.0043,0.0053,0.0042,0.0039,0.0072,0.0072,0.0072,0,0,0.0048,0.0042,0.0055,0.0012,0.0003,0.0004,-0.0025,-0.0048,-0.0026,-0.0031,0.0008,-0.0013,0.0018,0.0032,0.0036,0.0048,0.004,0.0046,0.0044,0.0056,0.0044,0.0041,0.0037,0.0073,0.0073,0.0073,0,0,0.0041,0.0003,0.0041,0.0035,0.0017,0.001,-0.0006,-0.003,-0.0016,0.0001,0.0002,-0.0025,0.001,0.0016,0.0027,0.0039,0.0024,0.0034,0.0035,0.0023,0.002,0.0016,0.0016,0.0013,0.0044,0.0044,0.0044,0,0.0044,0.0028,0.0037,0.0052,0.0046,0.0009,0.0011,0.0032,0.0026,0.0028,0.0009,0.0011,0.0003,0.0025,0.0016,0.0027,0.0029,0.0025,0.0017,0.0014,0.0011,0.0012,0.001,0.0041,0.0041,0.0042,0.0042,0,0.0065,0.0052,0.0053,0.0091,0.0087,0.0071,0.0076,0.0092,0.0075,0.0055,0.0043,0.0035,0.0033,0.0007,0.0008,-0.001,-0.0002,-0.0001,0.0005,0.0003,0.0005,0.0004,0.0037,0.0038,0.0039,0.0039,0,0,0.0042,0.0092,0.0064,0.0111,0.01,0.01,0.0143,0.0145,0.017,0.0127,0.0139,0.0095,0.0035,0.0048,0.0029,0.0001,-0.0047,-0.0013,-0.0013,-0.0038,-0.0067,-0.0028,-0.0026,-0.0059,-0.0059,-0.0059,-0.0063,0,0.0053,0.0108,0.0103,0.0137,0.0173,0.0169,0.0207,0.0208,0.0206,0.0217,0.0158,0.014,0.0078,0.0052,0.0016,-0.003,-0.0052,-0.0045,-0.0037,-0.0036,-0.0023,-0.0026,-0.0041,-0.0042,-0.0064,-0.0064,-0.0064,0,0.0049,0.0095,0.0136,0.0208,0.0209,0.022,0.0268,0.0304,0.0304,0.0295,0.0252,0.0201,0.0147,0.0099,0.0022,0.0027,-0.0021,-0.0063,-0.0063,-0.0001,0.0,-0.0037,-0.0043,-0.0067,-0.0066,-0.0066,-0.0066,0,0.004,0.0103,0.0149,0.0167,0.0232,0.0253,0.0279,0.0294,0.0329,0.0337,0.0318,0.0262,0.0231,0.0155,0.005,0.0031,-0.0024,-0.005,-0.005,-0.0047,-0.004,-0.0036,-0.0091,-0.0091,-0.0091,-0.0091,-0.0091,0,0.0072,0.008,0.016,0.017,0.0247,0.027,0.0318,0.036,0.0373,0.04,0.0342,0.0363,0.0235,0.0182,0.0088,0.0023,0.0011,-0.0044,-0.0045,-0.006,-0.0058,-0.0058,-0.0054,-0.0092,-0.0092,-0.0092,-0.0092,0,0.0067,0.0095,0.0149,0.0209,0.0246,0.0294,0.0357,0.0388,0.04,0.0454,0.044,0.0416,0.0363,0.025,0.0149,0.0085,0.001,-0.0005,-0.0008,-0.0008,-0.0016,-0.0015,-0.0009,-0.0007,-0.0006,-0.0005,-0.0004,0,0.0065,0.0098,0.0171,0.0214,0.0241,0.0323,0.036,0.0402,0.045,0.0505,0.0531,0.0488,0.0523,0.0397,0.0235,0.0108,0.0071,0.0032,-0.0008,-0.0006,-0.0008,-0.0008,-0.0009,-0.0032,-0.0032,-0.0031,-0.0031,0,0.0069,0.0072,0.0132,0.0224,0.0272,0.0369,0.0444,0.0495,0.0552,0.061,0.0704,0.0734,0.0618,0.0495,0.0312,0.0219,0.0046,0.004,0.0037,-0.0038,-0.0025,-0.0027,-0.0028,-0.0027,-0.0028,-0.0028,-0.0028,-0.0028,0.0043,0.0101,0.0161,0.0252,0.0315,0.0413,0.0499,0.059,0.0697,0.0826,0.0834,0.0885,0.0672,0.0453,0.0284,0.0103,0.0113,0.0033,0.003,0.0026,0.0037,0.0053,0.0068,0.0068,0.0068,0.0068,0.0068,0,0.0074,0.0128,0.02,0.0309,0.0371,0.0407,0.0553,0.0667,0.0837,0.0928,0.1022,0.0834,0.0681,0.047,0.0207,0.0061,0.0018,0.0017,-0.0031,-0.0033,-0.0035,-0.003,-0.0016,-0.0017,-0.0017,-0.0018,0,0,0.0095,0.0159,0.0205,0.0318,0.0397,0.0522,0.0615,0.0815,0.0938,0.1093,0.1099,0.1001,0.0739,0.049,0.026,0.0147,0.0105,0.0126,0.021,0.018,0.018,-0.001,-0.0,0,0,0,0,0]}],[{"header":{"parameterUnit":"m.s-1","parameterCategory":2,"la1":30.2991,"la2":30.254,"lo1":-89.0895,"lo2":-89.0444,"dy":0.0017,"dx":0.0017,"nx":28,"ny":28,"refTime":"2023-10-13T03:00:00:Z","depth":"4","parameterNumber":2,"parameterNumberName":"U-component_of_CURRENTS"},"data":[0,0,0,0,0,0,0,0,0,0,0,0,0,0,0,0,0,0,0,0,0,0,0,0,0,0,0,0,0,0,0,0,0,0,0,0,0,0,0,0,0,0,0,0,0,0,0,0,0,0,0,0,0,0,0,0,0,0,-0.0562,-0.0563,0,-0.0652,-0.0653,-0.0654,-0.0707,-0.0708,-0.0708,-0.0708,-0.0735,-0.0735,-0.0736,0,0,0,0,0,0,0,0,0,0,0,0,0,-0.0512,-0.0512,-0.0562,-0.0563,-0.0564,-0.0652,-0.0653,-0.0654,-0.0707,-0.0708,-0.0708,-0.0708,-0.0734,-0.0735,-0.0736,0,0,0,0,0,0,0,0,0,0,0,0,0,-0.056,-0.0512,-0.0562,-0.0602,-0.0606,-0.0652,-0.0653,-0.0655,-0.0707,-0.0708,-0.0708,-0.0709,-0.0734,-0.0735,-0.0736,-0.0731,0,0,-0.0738,-0.0738,0,0,0,0,0,0,0,0,-0.0557,-0.0562,-0.0595,-0.0599,-0.0604,-0.0669,-0.0645,-0.0677,-0.0707,-0.0668,-0.0708,-0.0709,-0.0707,-0.071,-0.0726,-0.0733,-0.0734,-0.0738,-0.0738,-0.0738,-0.0739,0,0,0,0,0,0,0,-0.0554,-0.0559,-0.0597,-0.0596,-0.0602,-0.0641,-0.0648,-0.0652,-0.0683,-0.0672,-0.0676,-0.0687,-0.0709,-0.0725,-0.0727,-0.0734,-0.0738,-0.0738,-0.0739,-0.0739,-0.0842,-0.0844,0,0,0,0,0,0,-0.0539,-0.0555,-0.0594,-0.06,-0.0582,-0.0641,-0.0649,-0.0648,-0.0684,-0.0691,-0.0686,-0.0689,-0.0724,-0.0726,-0.0728,-0.0814,-0.0738,-0.0739,-0.0739,-0.0839,-0.0842,-0.0845,0,0,0,0,0,0,-0.0537,-0.0541,-0.0591,-0.0581,-0.059,-0.0641,-0.064,-0.0649,-0.0721,-0.0696,-0.0701,-0.0754,-0.0725,-0.0727,-0.0776,-0.0812,-0.0739,-0.074,-0.0837,-0.084,-0.0843,-0.0929,0,0,0,0,0,0,-0.0535,-0.054,-0.0554,-0.0579,-0.059,-0.0635,-0.064,-0.0651,-0.0723,-0.0729,-0.0755,-0.0755,-0.0725,-0.0775,-0.0776,-0.0812,-0.074,-0.0834,-0.0838,-0.0842,-0.0923,-0.0935,-0.0945,0,0,0,0,0,-0.0533,-0.0552,-0.0553,-0.0559,-0.06,-0.0636,-0.0647,-0.0684,-0.0727,-0.0753,-0.0785,-0.0757,-0.0803,-0.0778,-0.0779,-0.0815,-0.0832,-0.0837,-0.0842,-0.0918,-0.0933,-0.0945,0,0,0,0,0,0,-0.0547,-0.0559,-0.0562,-0.0585,-0.0614,-0.0646,-0.0697,-0.0723,-0.0775,-0.0803,-0.0788,-0.0789,-0.0844,-0.0826,-0.0799,-0.086,-0.0813,-0.0818,-0.087,-0.0884,-0.0894,-0.0855,-0.0741,0,0,0,0,0,-0.0551,-0.0566,-0.0582,-0.0607,-0.0636,-0.0681,-0.0714,-0.0737,-0.0776,-0.0805,-0.0809,-0.0832,-0.0858,-0.0872,-0.0877,-0.0914,-0.0887,-0.0939,-0.095,-0.096,-0.0931,-0.0962,-0.0973,-0.0862,-0.0862,-0.0862,0,0,-0.0565,-0.0575,-0.0586,-0.0612,-0.0656,-0.0686,-0.0705,-0.0774,-0.0798,-0.0796,-0.085,-0.0874,-0.088,-0.0917,-0.094,-0.0912,-0.0978,-0.0966,-0.0974,-0.0939,-0.0969,-0.0979,-0.0988,-0.0865,-0.0865,-0.0864,0,0,-0.06,-0.062,-0.0647,-0.0672,-0.0729,-0.0741,-0.0773,-0.0821,-0.0853,-0.0892,-0.0913,-0.0959,-0.0979,-0.0989,-0.1,-0.1078,-0.104,-0.1098,-0.1115,-0.1149,-0.1157,-0.1164,-0.1142,-0.1146,-0.1098,-0.1099,-0.1099,0,-0.0621,-0.0637,-0.0665,-0.0701,-0.0725,-0.0772,-0.0807,-0.0842,-0.0889,-0.0912,-0.0915,-0.099,-0.1002,-0.1062,-0.1085,-0.1099,-0.1096,-0.1065,-0.1161,-0.1167,-0.1173,-0.1148,-0.1152,-0.1103,-0.1103,-0.1102,-0.1102,0,-0.0661,-0.0687,-0.0723,-0.0757,-0.0788,-0.0834,-0.0866,-0.0904,-0.0943,-0.0959,-0.103,-0.1055,-0.1078,-0.112,-0.112,-0.1186,-0.1163,-0.1176,-0.1121,-0.1189,-0.1159,-0.1161,-0.111,-0.1108,-0.1107,-0.1106,0,0,-0.0669,-0.073,-0.0744,-0.0758,-0.0819,-0.084,-0.0896,-0.0933,-0.0969,-0.1016,-0.1053,-0.1121,-0.1134,-0.1146,-0.118,-0.122,-0.1266,-0.1216,-0.1215,-0.118,-0.1308,-0.1077,-0.1057,-0.1311,-0.1312,-0.1313,-0.1269,0,-0.0692,-0.0735,-0.0764,-0.0808,-0.0835,-0.0878,-0.0908,-0.0953,-0.0989,-0.1027,-0.1091,-0.1122,-0.1148,-0.1162,-0.1217,-0.1256,-0.1276,-0.1273,-0.1256,-0.1253,-0.1031,-0.1053,-0.1317,-0.127,-0.1271,-0.1271,-0.1271,0,-0.0713,-0.0733,-0.0764,-0.0807,-0.0829,-0.083,-0.0878,-0.0908,-0.0978,-0.1013,-0.1069,-0.1112,-0.1171,-0.1182,-0.1257,-0.1261,-0.1271,-0.1302,-0.1302,-0.1045,-0.1026,-0.1191,-0.1274,-0.1274,-0.1274,-0.1274,-0.1273,0,-0.0679,-0.0734,-0.0742,-0.0759,-0.0811,-0.0809,-0.0816,-0.0879,-0.0916,-0.0966,-0.0998,-0.1089,-0.1102,-0.1173,-0.1201,-0.1243,-0.1264,-0.1325,-0.1125,-0.1109,-0.1293,-0.1286,-0.1357,-0.1357,-0.1357,-0.1357,-0.1357,0,-0.0666,-0.0696,-0.0702,-0.0711,-0.0699,-0.0741,-0.0743,-0.0776,-0.0836,-0.0845,-0.0951,-0.0956,-0.1104,-0.1137,-0.1188,-0.1115,-0.1236,-0.1094,-0.1077,-0.1331,-0.1328,-0.1294,-0.1287,-0.1355,-0.1356,-0.1356,-0.1356,0,-0.0644,-0.0663,-0.0678,-0.0692,-0.0679,-0.0651,-0.0666,-0.0685,-0.0732,-0.0741,-0.0749,-0.0859,-0.0839,-0.0952,-0.1025,-0.1032,-0.1031,-0.0973,-0.1175,-0.1176,-0.0867,-0.0866,-0.0765,-0.0757,-0.0749,-0.0743,-0.0738,0,-0.0628,-0.0629,-0.0636,-0.0603,-0.0589,-0.0553,-0.0547,-0.0604,-0.0599,-0.0637,-0.062,-0.0634,-0.0674,-0.0607,-0.0728,-0.0761,-0.0768,-0.0781,-0.088,-0.0809,-0.0805,-0.0815,-0.0824,-0.0726,-0.0724,-0.0723,-0.0721,0,-0.0595,-0.0607,-0.0608,-0.0543,-0.0498,-0.0475,-0.0424,-0.042,-0.0452,-0.053,-0.0435,-0.0435,-0.0391,-0.0442,-0.0442,-0.0491,-0.0798,-0.0706,-0.0725,-0.0818,-0.0762,-0.0767,-0.0784,-0.0695,-0.0699,-0.0701,-0.0703,0,-0.0558,-0.0531,-0.0519,-0.0456,-0.0426,-0.0355,-0.0357,-0.029,-0.0299,-0.032,-0.0253,-0.0272,-0.0312,-0.0289,-0.0298,-0.0299,-0.0333,-0.0396,-0.0432,-0.0461,-0.0386,-0.0272,-0.0008,0,0,0,0,0,-0.0471,-0.0439,-0.0417,-0.0346,-0.0342,-0.0311,-0.0271,-0.0282,-0.0294,-0.0185,-0.0211,-0.0137,-0.0102,-0.0132,-0.0079,-0.0199,-0.037,-0.0141,-0.047,-0.0555,-0.0584,-0.0526,0,0,0,0,0,0,-0.0407,-0.0385,-0.0394,-0.0293,-0.0236,-0.0205,-0.0178,-0.0186,-0.0107,-0.0117,-0.0093,-0.0107,-0.009,-0.0115,-0.0071,-0.0079,-0.0275,-0.0152,-0.015,-0.0538,-0.0565,-0.0588,-0.0539,0,0,0,0,0]},{"header":{"parameterUnit":"m.s-1","parameterCategory":2,"la1":30.2991,"la2":30.254,"lo1":-89.0895,"lo2":-89.0444,"dy":0.0017,"dx":0.0017,"nx":28,"ny":28,"refTime":"2023-10-13T03:00:00:Z","depth":"4","parameterNumber":3,"parameterNumberName":"V-component_of_CURRENTS"},"data":[0,0,0,0,0,0,0,0,0,0,0,0,0,0,0,0,0,0,0,0,0,0,0,0,0,0,0,0,0,0,0,0,0,0,0,0,0,0,0,0,0,0,0,0,0,0,0,0,0,0,0,0,0,0,0,0,0,0,0.0214,0.0214,0,0.0223,0.0223,0.0223,0.0247,0.0247,0.0248,0.0248,0.0218,0.0217,0.0215,0,0,0,0,0,0,0,0,0,0,0,0,0,0.0274,0.0273,0.0214,0.0214,0.0214,0.0223,0.0223,0.0223,0.0246,0.0247,0.0248,0.0248,0.0218,0.0217,0.0215,0,0,0,0,0,0,0,0,0,0,0,0,0,0.0261,0.0272,0.0214,0.0227,0.0229,0.0223,0.0223,0.0223,0.0246,0.0247,0.0248,0.0249,0.0219,0.0217,0.0215,0.0186,0,0,0.0209,0.0208,0,0,0,0,0,0,0,0,0.0262,0.0259,0.0225,0.0227,0.0228,0.0235,0.0234,0.0209,0.0246,0.0239,0.0248,0.0249,0.022,0.0218,0.0217,0.0184,0.0183,0.0209,0.0208,0.0207,0.0206,0,0,0,0,0,0,0,0.0263,0.0259,0.0217,0.0225,0.0227,0.0253,0.0251,0.0229,0.0223,0.024,0.0241,0.0243,0.022,0.0219,0.0217,0.0183,0.0209,0.0207,0.0206,0.0205,0.0157,0.0157,0,0,0,0,0,0,0.0259,0.0259,0.0216,0.0217,0.0248,0.0251,0.0249,0.0231,0.0224,0.0225,0.0243,0.0244,0.0222,0.0219,0.0216,0.0204,0.0207,0.0205,0.0204,0.0157,0.0157,0.0157,0,0,0,0,0,0,0.026,0.0254,0.0216,0.0241,0.0238,0.0249,0.0229,0.0231,0.0258,0.0227,0.0227,0.027,0.0223,0.0218,0.02,0.0202,0.0204,0.0202,0.0158,0.0157,0.0157,0.0166,0,0,0,0,0,0,0.0261,0.0254,0.0257,0.0239,0.0236,0.0218,0.0228,0.0231,0.0256,0.026,0.025,0.0247,0.0223,0.0203,0.0198,0.02,0.0201,0.0158,0.0158,0.0157,0.0166,0.0166,0.0167,0,0,0,0,0,0.0263,0.0254,0.0257,0.0253,0.0233,0.0218,0.0218,0.023,0.0257,0.026,0.0251,0.0249,0.0199,0.0201,0.0195,0.0196,0.0158,0.0158,0.0157,0.0166,0.0166,0.0167,0,0,0,0,0,0,0.0285,0.0255,0.0258,0.0242,0.0236,0.0222,0.0242,0.0247,0.0246,0.026,0.024,0.0234,0.0219,0.0208,0.021,0.0183,0.0181,0.018,0.019,0.019,0.019,0.0177,0.0199,0,0,0,0,0,0.0289,0.0278,0.0254,0.0249,0.0253,0.0257,0.0263,0.0261,0.0252,0.0257,0.024,0.0228,0.0209,0.0202,0.0177,0.0161,0.0164,0.0161,0.0162,0.0162,0.0147,0.0165,0.0166,0.0157,0.0157,0.0157,0,0,0.0297,0.0283,0.0277,0.0255,0.0265,0.0232,0.0264,0.0273,0.0242,0.025,0.0222,0.0226,0.0204,0.018,0.0174,0.0175,0.0167,0.0162,0.0162,0.0147,0.0165,0.0166,0.0166,0.0157,0.0157,0.0157,0,0,0.0291,0.03,0.0282,0.0267,0.0268,0.0254,0.0261,0.0248,0.0253,0.0221,0.0223,0.0226,0.0191,0.0173,0.0162,0.0152,0.0167,0.0163,0.0153,0.0171,0.0172,0.0173,0.0185,0.0187,0.0165,0.0165,0.0165,0,0.0304,0.0267,0.0279,0.0249,0.0234,0.026,0.0223,0.0217,0.0193,0.0191,0.021,0.0182,0.0178,0.0148,0.0153,0.015,0.017,0.0154,0.0172,0.0173,0.0174,0.0186,0.0188,0.0166,0.0166,0.0166,0.0166,0,0.0264,0.0241,0.024,0.0194,0.0176,0.0165,0.014,0.0136,0.0151,0.0138,0.0134,0.0135,0.0124,0.0134,0.014,0.0146,0.0162,0.0171,0.0172,0.0175,0.0188,0.019,0.0166,0.0166,0.0166,0.0166,0,0,0.0289,0.0218,0.0228,0.0189,0.015,0.0127,0.0088,0.0058,0.0045,0.005,0.0033,0.0036,0.0079,0.007,0.0097,0.012,0.0157,0.016,0.0161,0.0173,0.0206,0.0121,0.0115,0.0187,0.0187,0.0187,0.0217,0,0.0265,0.0195,0.016,0.0091,0.0053,0.0039,-0.0009,-0.0033,-0.0029,-0.0042,-0.0003,-0.0003,0.0042,0.0068,0.0094,0.014,0.0161,0.0148,0.0199,0.0199,0.0125,0.0113,0.0188,0.0218,0.0218,0.0219,0.0219,0,0.0254,0.0197,0.0139,0.003,0.0017,-0.0006,-0.0049,-0.0097,-0.0107,-0.0103,-0.008,-0.0055,-0.0017,0.0029,0.0098,0.01,0.0151,0.0187,0.0189,0.0101,0.0116,0.0212,0.0222,0.0222,0.0222,0.0221,0.0221,0,0.0294,0.0188,0.0148,0.0116,0.0004,0.0007,-0.0031,-0.0066,-0.0107,-0.0098,-0.0111,-0.0078,-0.0042,0.0022,0.009,0.0118,0.0155,0.0197,0.0156,0.0152,0.0219,0.0218,0.0232,0.0232,0.0232,0.0232,0.0232,0,0.0276,0.0247,0.019,0.0168,0.0125,0.0047,0.0018,-0.0014,-0.0067,-0.0124,-0.0098,-0.0129,-0.0033,-0.0013,0.0065,0.0096,0.0136,0.0138,0.0145,0.0223,0.0222,0.0221,0.022,0.0233,0.0233,0.0233,0.0232,0,0.0325,0.0286,0.024,0.0165,0.016,0.015,0.0063,0.0005,-0.0026,-0.0093,-0.0088,-0.0134,-0.0113,-0.0062,0.0021,0.005,0.0097,0.0096,0.0151,0.0165,0.0098,0.0097,0.0073,0.0071,0.0068,0.0066,0.0064,0,0.0326,0.0324,0.0294,0.0292,0.0287,0.025,0.0199,0.0088,-0.0002,-0.0113,-0.0165,-0.0172,-0.0191,-0.0131,-0.0087,0.0001,0.0016,0.0041,0.009,0.0067,0.0078,0.0081,0.0083,0.006,0.006,0.0059,0.0058,0,0.0326,0.0376,0.0331,0.0365,0.035,0.024,0.0164,0.0097,-0.0071,-0.0107,-0.0198,-0.0196,-0.0214,-0.0164,-0.0125,-0.0057,0.0028,0.0017,0.0024,0.0071,0.0051,0.0065,0.007,0.005,0.0051,0.0052,0.0052,0,0.0363,0.0349,0.0367,0.0379,0.0374,0.0269,0.0186,0.0054,-0.0051,-0.0186,-0.0215,-0.022,-0.0227,-0.0202,-0.0167,-0.0123,-0.0085,-0.0033,-0.0022,-0.0012,-0.006,-0.0097,-0.0153,0,0,0,0,0,0.0367,0.035,0.0362,0.0332,0.0348,0.0344,0.0163,0.0043,-0.0105,-0.0157,-0.0188,-0.0203,-0.0186,-0.0201,-0.0161,-0.0216,-0.009,-0.0174,-0.0024,0.0001,0.0011,-0.0041,0,0,0,0,0,0,0.0348,0.0369,0.0344,0.0342,0.0363,0.0288,0.0198,0.0056,-0.001,-0.01,-0.0088,-0.0132,-0.0114,-0.0131,-0.011,-0.0117,-0.0016,-0.0178,-0.0178,-0.0004,0.0005,0.0013,-0.0037,0,0,0,0,0]}]]